Location: LDNL
(36.4545°S, 141.6685°E)
Time: 12:41:18
(UTC+10:00)

Explorer 7 - Pass Details

Date: 16 August 2022
Orbit: 482 x 668 km, 50.3° (Epoch: 26 September)

Event Time Altitude Azimuth Distance (km) Brightness Sun altitude
Rises 17:46:01 0° 287° (WNW) 3,013 14.4 1.9°
Reaches altitude 10° 17:48:31 10° 279° (W) 2,105 11.9 1.5°
Maximum altitude 17:53:05 38° 210° (SSW) 1,016 8.4 0.6°
Drops below altitude 10° 17:57:36 10° 141° (SE) 2,077 9.3 -0.3°
Sets 18:00:03 0° 133° (SE) 2,969 10.0 -0.7°
